Year,Month,Day,Hour,Minute,Value (Times are PST for temperature in C)
2007,03,27,00,00,6.40
2007,03,27,00,01,6.40
2007,03,27,00,02,6.40
2007,03,27,00,03,6.40
2007,03,27,00,04,6.30
2007,03,27,00,05,6.30
2007,03,27,00,06,6.30
2007,03,27,00,07,6.30
2007,03,27,00,08,6.30
2007,03,27,00,09,6.30
2007,03,27,00,10,6.30
2007,03,27,00,11,6.20
2007,03,27,00,12,6.20
2007,03,27,00,13,6.20
2007,03,27,00,14,6.20
2007,03,27,00,15,6.20
2007,03,27,00,16,6.20
2007,03,27,00,17,6.10
2007,03,27,00,18,6.10
2007,03,27,00,19,6.10
2007,03,27,00,20,6.10
2007,03,27,00,21,6.10
2007,03,27,00,22,6.00
2007,03,27,00,23,6.00
2007,03,27,00,24,6.00
2007,03,27,00,25,5.90
2007,03,27,00,26,5.90
2007,03,27,00,27,5.90
2007,03,27,00,28,5.90
2007,03,27,00,29,5.90
2007,03,27,00,30,5.90
2007,03,27,00,31,5.80
2007,03,27,00,32,5.80
2007,03,27,00,33,5.80
2007,03,27,00,34,5.80
2007,03,27,00,35,5.80
2007,03,27,00,36,5.80
2007,03,27,00,37,5.80
2007,03,27,00,38,5.80
2007,03,27,00,39,5.70
2007,03,27,00,40,5.70
2007,03,27,00,41,5.70
2007,03,27,00,42,5.70
2007,03,27,00,43,5.70
2007,03,27,00,44,5.60
2007,03,27,00,45,5.60
2007,03,27,00,46,5.60
2007,03,27,00,47,5.60
2007,03,27,00,48,5.60
2007,03,27,00,49,5.60
2007,03,27,00,50,5.60
2007,03,27,00,51,5.60
2007,03,27,00,52,5.60
2007,03,27,00,53,5.60
2007,03,27,00,54,5.60
2007,03,27,00,55,5.60
2007,03,27,00,56,5.60
2007,03,27,00,57,5.60
2007,03,27,00,58,5.50
2007,03,27,00,59,5.50
2007,03,27,01,00,5.50
2007,03,27,01,01,5.50
2007,03,27,01,02,5.50
2007,03,27,01,03,5.50
2007,03,27,01,04,5.50
2007,03,27,01,05,5.50
2007,03,27,01,06,5.50
2007,03,27,01,07,5.50
2007,03,27,01,08,5.50
2007,03,27,01,09,5.60
2007,03,27,01,10,5.60
2007,03,27,01,11,5.60
2007,03,27,01,12,5.60
2007,03,27,02,02,6.10
2007,03,27,02,03,6.10
2007,03,27,02,04,6.10
2007,03,27,02,05,6.20
2007,03,27,02,06,6.20
2007,03,27,02,07,6.20
2007,03,27,02,08,6.20
2007,03,27,02,09,6.30
2007,03,27,02,10,6.30
2007,03,27,02,11,6.30
2007,03,27,02,12,6.30
2007,03,27,02,13,6.30
2007,03,27,02,14,6.30
2007,03,27,02,15,6.30
2007,03,27,02,16,6.30
2007,03,27,02,17,6.30
2007,03,27,02,18,6.30
2007,03,27,02,19,6.30
2007,03,27,02,20,6.30
2007,03,27,02,21,6.30
2007,03,27,02,22,6.30
2007,03,27,02,23,6.20
2007,03,27,02,24,6.20
2007,03,27,02,25,6.20
2007,03,27,02,26,6.20
2007,03,27,02,27,6.20
2007,03,27,02,28,6.10
2007,03,27,02,29,6.10
2007,03,27,02,30,6.10
2007,03,27,02,31,6.10
2007,03,27,02,32,6.10
2007,03,27,02,33,6.10
2007,03,27,02,34,6.10
2007,03,27,02,35,6.10
2007,03,27,02,36,6.10
2007,03,27,02,37,6.00
2007,03,27,02,38,6.00
2007,03,27,02,39,6.00
2007,03,27,02,40,5.90
2007,03,27,02,41,5.90
2007,03,27,02,42,5.90
2007,03,27,02,43,5.90
2007,03,27,02,44,5.80
2007,03,27,02,45,5.80
2007,03,27,02,46,5.80
2007,03,27,02,47,5.80
2007,03,27,02,48,5.80
2007,03,27,02,49,5.70
2007,03,27,02,50,5.70
2007,03,27,02,51,5.70
2007,03,27,02,52,5.70
2007,03,27,02,53,5.70
2007,03,27,02,54,5.70
2007,03,27,02,55,5.70
2007,03,27,02,56,5.60
2007,03,27,02,57,5.60
2007,03,27,02,58,5.60
2007,03,27,02,59,5.60
2007,03,27,03,00,5.50
2007,03,27,03,01,5.50
2007,03,27,03,02,5.50
2007,03,27,03,03,5.50
2007,03,27,03,04,5.50
2007,03,27,03,05,5.50
2007,03,27,03,06,5.50
2007,03,27,03,07,5.50
2007,03,27,03,08,5.40
2007,03,27,03,09,5.40
2007,03,27,03,10,5.40
2007,03,27,03,11,5.40
2007,03,27,03,12,5.40
2007,03,27,03,13,5.40
2007,03,27,03,14,5.40
2007,03,27,03,15,5.40
2007,03,27,03,16,5.40
2007,03,27,03,17,5.40
2007,03,27,03,18,5.30
2007,03,27,03,19,5.30
2007,03,27,03,20,5.30
2007,03,27,03,21,5.30
2007,03,27,03,22,5.30
2007,03,27,03,23,5.30
2007,03,27,03,24,5.30
2007,03,27,03,25,5.30
2007,03,27,03,26,5.30
2007,03,27,03,27,5.20
2007,03,27,03,28,5.20
2007,03,27,03,29,5.20
2007,03,27,03,30,5.20
2007,03,27,03,31,5.20
2007,03,27,03,32,5.20
2007,03,27,03,33,5.20
2007,03,27,03,34,5.10
2007,03,27,03,35,5.10
2007,03,27,03,36,5.10
2007,03,27,03,37,5.10
2007,03,27,03,38,5.10
2007,03,27,03,39,5.10
2007,03,27,03,40,5.10
2007,03,27,03,41,5.10
2007,03,27,03,42,5.00
2007,03,27,03,43,5.00
2007,03,27,03,44,5.00
2007,03,27,03,45,5.00
2007,03,27,03,46,4.90
2007,03,27,03,47,4.90
2007,03,27,03,48,4.90
2007,03,27,03,49,4.90
2007,03,27,03,50,4.80
2007,03,27,03,51,4.80
2007,03,27,03,52,4.80
2007,03,27,03,53,4.80
2007,03,27,03,54,4.80
2007,03,27,03,55,4.80
2007,03,27,03,56,4.80
2007,03,27,03,57,4.70
2007,03,27,03,58,4.70
2007,03,27,03,59,4.70
2007,03,27,04,00,4.70
2007,03,27,04,01,4.70
2007,03,27,04,02,4.70
2007,03,27,04,03,4.60
2007,03,27,04,04,4.60
2007,03,27,04,05,4.60
2007,03,27,04,06,4.60
2007,03,27,04,07,4.60
2007,03,27,04,08,4.60
2007,03,27,04,09,4.60
2007,03,27,04,10,4.50
2007,03,27,04,11,4.50
2007,03,27,04,12,4.50
2007,03,27,04,13,4.50
2007,03,27,04,14,4.40
2007,03,27,04,15,4.40
2007,03,27,04,16,4.40
2007,03,27,04,17,4.40
2007,03,27,04,18,4.30
2007,03,27,04,19,4.30
2007,03,27,04,20,4.30
2007,03,27,04,21,4.30
2007,03,27,04,22,4.30
2007,03,27,04,23,4.20
2007,03,27,04,24,4.20
2007,03,27,04,25,4.20
2007,03,27,04,26,4.10
2007,03,27,04,27,4.10
2007,03,27,04,28,4.10
2007,03,27,04,29,4.10
2007,03,27,04,30,4.00
2007,03,27,04,31,4.00
2007,03,27,04,32,4.00
2007,03,27,04,33,3.90
2007,03,27,04,34,3.90
2007,03,27,04,35,3.90
2007,03,27,04,36,3.90
2007,03,27,04,37,3.90
2007,03,27,04,38,3.80
2007,03,27,04,39,3.80
2007,03,27,04,40,3.80
2007,03,27,04,41,3.80
2007,03,27,04,42,3.80
2007,03,27,04,43,3.80
2007,03,27,04,44,3.80
2007,03,27,04,45,3.70
2007,03,27,04,46,3.70
2007,03,27,04,47,3.70
2007,03,27,04,48,3.70
2007,03,27,04,49,3.60
2007,03,27,04,50,3.60
2007,03,27,04,51,3.60
2007,03,27,04,52,3.60
2007,03,27,04,53,3.60
2007,03,27,04,54,3.60
2007,03,27,04,55,3.60
2007,03,27,04,56,3.60
2007,03,27,04,57,3.60
2007,03,27,04,58,3.50
2007,03,27,04,59,3.50
2007,03,27,05,00,3.50
2007,03,27,05,01,3.50
2007,03,27,05,02,3.50
2007,03,27,05,03,3.50
2007,03,27,05,04,3.50
2007,03,27,05,05,3.50
2007,03,27,05,06,3.50
2007,03,27,05,07,3.40
2007,03,27,05,08,3.40
2007,03,27,05,09,3.40
2007,03,27,05,10,3.40
2007,03,27,05,11,3.40
2007,03,27,05,12,3.40
2007,03,27,05,13,3.40
2007,03,27,05,14,3.40
2007,03,27,05,15,3.30
2007,03,27,05,16,3.30
2007,03,27,05,17,3.30
2007,03,27,05,18,3.30
2007,03,27,05,19,3.30
2007,03,27,05,20,3.30
2007,03,27,05,21,3.30
2007,03,27,05,22,3.30
2007,03,27,05,23,3.30
2007,03,27,05,24,3.20
2007,03,27,05,25,3.20
2007,03,27,05,26,3.20
2007,03,27,05,27,3.20
2007,03,27,05,28,3.20
2007,03,27,05,29,3.20
2007,03,27,05,30,3.20
2007,03,27,05,31,3.20
2007,03,27,05,32,3.20
2007,03,27,05,33,3.20
2007,03,27,05,34,3.10
2007,03,27,05,35,3.10
2007,03,27,05,36,3.10
2007,03,27,05,37,3.10
2007,03,27,05,38,3.10
2007,03,27,05,39,3.10
2007,03,27,05,40,3.10
2007,03,27,05,41,3.10
2007,03,27,05,42,3.10
2007,03,27,05,43,3.10
2007,03,27,05,44,3.10
2007,03,27,05,45,3.10
2007,03,27,05,46,3.10
2007,03,27,05,47,3.10
2007,03,27,05,48,3.10
2007,03,27,05,49,3.10
2007,03,27,05,50,3.10
2007,03,27,05,51,3.10
2007,03,27,05,52,3.10
2007,03,27,05,53,3.00
2007,03,27,05,54,3.00
2007,03,27,05,55,3.00
2007,03,27,05,56,3.00
2007,03,27,05,57,3.00
2007,03,27,05,58,3.00
2007,03,27,05,59,3.00
2007,03,27,06,00,3.00
2007,03,27,06,01,3.00
2007,03,27,06,02,3.00
2007,03,27,06,03,3.00
2007,03,27,06,04,3.00
2007,03,27,06,05,3.00
2007,03,27,06,06,3.00
2007,03,27,06,07,3.00
2007,03,27,06,08,3.00
2007,03,27,06,09,3.00
2007,03,27,06,10,3.00
2007,03,27,06,11,3.00
2007,03,27,06,12,3.00
2007,03,27,06,13,3.00
2007,03,27,06,14,3.00
2007,03,27,06,15,3.00
2007,03,27,06,16,3.00
2007,03,27,06,17,3.00
2007,03,27,06,18,3.00
2007,03,27,06,19,3.00
2007,03,27,06,20,3.00
2007,03,27,06,21,2.90
2007,03,27,06,22,2.90
2007,03,27,06,23,2.90
2007,03,27,06,24,2.90
2007,03,27,06,25,2.90
2007,03,27,06,26,2.90
2007,03,27,06,27,2.90
2007,03,27,06,28,2.90
2007,03,27,06,29,2.80
2007,03,27,06,30,2.80
2007,03,27,06,31,2.80
2007,03,27,06,32,2.80
2007,03,27,06,33,2.80
2007,03,27,06,34,2.80
2007,03,27,06,35,2.80
2007,03,27,06,36,2.80
2007,03,27,06,37,2.80
2007,03,27,06,38,2.80
2007,03,27,06,39,2.70
2007,03,27,06,40,2.70
2007,03,27,06,41,2.70
2007,03,27,06,42,2.70
2007,03,27,06,43,2.70
2007,03,27,06,44,2.70
2007,03,27,06,45,2.70
2007,03,27,06,46,2.70
2007,03,27,06,47,2.70
2007,03,27,06,48,2.60
2007,03,27,06,49,2.60
2007,03,27,06,50,2.60
2007,03,27,06,51,2.50
2007,03,27,06,52,2.50
2007,03,27,06,53,2.50
2007,03,27,06,54,2.40
2007,03,27,06,55,2.40
2007,03,27,06,56,2.40
2007,03,27,06,57,2.40
2007,03,27,06,58,2.30
2007,03,27,06,59,2.30
2007,03,27,07,00,2.30
2007,03,27,07,01,2.30
2007,03,27,07,02,2.30
2007,03,27,07,03,2.30
2007,03,27,07,04,2.30
2007,03,27,07,05,2.30
2007,03,27,07,06,2.30
2007,03,27,07,07,2.20
2007,03,27,07,08,2.20
2007,03,27,07,09,2.20
2007,03,27,07,10,2.20
2007,03,27,07,11,2.30
2007,03,27,07,12,2.30
2007,03,27,07,13,2.30
2007,03,27,07,14,2.30
2007,03,27,07,15,2.30
2007,03,27,07,16,2.30
2007,03,27,07,17,2.30
2007,03,27,07,18,2.30
2007,03,27,07,19,2.40
2007,03,27,07,20,2.40
2007,03,27,07,21,2.40
2007,03,27,07,22,2.50
2007,03,27,07,23,2.50
2007,03,27,07,24,2.50
2007,03,27,07,25,2.60
2007,03,27,07,26,2.60
2007,03,27,07,27,2.60
2007,03,27,07,28,2.60
2007,03,27,07,29,2.60
2007,03,27,07,30,2.60
2007,03,27,07,31,2.60
2007,03,27,07,32,2.60
2007,03,27,07,33,2.60
2007,03,27,07,34,2.60
2007,03,27,07,35,2.60
2007,03,27,07,36,2.60
2007,03,27,07,37,2.60
2007,03,27,07,38,2.60
2007,03,27,07,39,2.60
2007,03,27,07,40,2.60
2007,03,27,07,41,2.60
2007,03,27,07,42,2.60
2007,03,27,07,43,2.60
2007,03,27,07,44,2.60
2007,03,27,07,45,2.60
2007,03,27,07,46,2.60
2007,03,27,07,47,2.60
2007,03,27,07,48,2.60
2007,03,27,07,49,2.60
2007,03,27,07,50,2.60
2007,03,27,07,51,2.70
2007,03,27,07,52,2.70
2007,03,27,07,53,2.80
2007,03,27,07,54,2.80
2007,03,27,07,55,2.90
2007,03,27,07,56,2.90
2007,03,27,07,57,3.00
2007,03,27,07,58,3.10
2007,03,27,07,59,3.10
2007,03,27,08,00,3.20
2007,03,27,08,01,3.30
2007,03,27,08,02,3.30
2007,03,27,08,03,3.40
2007,03,27,08,04,3.50
2007,03,27,08,05,3.50
2007,03,27,08,06,3.60
2007,03,27,08,07,3.70
2007,03,27,08,08,3.80
2007,03,27,08,09,3.80
2007,03,27,08,10,3.90
2007,03,27,08,11,3.90
2007,03,27,08,12,3.90
2007,03,27,08,13,3.90
2007,03,27,08,14,4.00
2007,03,27,08,15,4.00
2007,03,27,08,16,4.10
2007,03,27,08,17,4.20
2007,03,27,08,18,4.30
2007,03,27,08,19,4.30
2007,03,27,08,20,4.40
2007,03,27,08,21,4.40
2007,03,27,08,22,4.50
2007,03,27,08,23,4.60
2007,03,27,08,24,4.60
2007,03,27,08,25,4.70
2007,03,27,08,26,4.80
2007,03,27,08,27,4.80
2007,03,27,08,28,4.90
2007,03,27,08,29,5.00
2007,03,27,08,30,5.00
2007,03,27,08,31,5.10
2007,03,27,08,32,5.20
2007,03,27,08,33,5.20
2007,03,27,08,34,5.30
2007,03,27,08,35,5.30
2007,03,27,08,36,5.40
2007,03,27,08,37,5.50
2007,03,27,08,38,5.50
2007,03,27,08,39,5.60
2007,03,27,08,40,5.60
2007,03,27,08,41,5.70
2007,03,27,08,42,5.80
2007,03,27,08,43,5.80
2007,03,27,08,44,5.90
2007,03,27,08,45,5.90
2007,03,27,08,46,6.00
2007,03,27,08,47,6.10
2007,03,27,08,48,6.20
2007,03,27,08,49,6.20
2007,03,27,08,50,6.30
2007,03,27,08,51,6.40
2007,03,27,08,52,6.50
2007,03,27,08,53,6.50
2007,03,27,08,54,6.60
2007,03,27,08,55,6.60
2007,03,27,08,56,6.70
2007,03,27,08,57,6.70
2007,03,27,08,58,6.80
2007,03,27,08,59,6.80
2007,03,27,09,00,6.90
2007,03,27,09,01,6.90
2007,03,27,09,02,7.00
2007,03,27,09,03,7.10
2007,03,27,09,04,7.20
2007,03,27,09,05,7.20
2007,03,27,09,06,7.30
2007,03,27,09,07,7.50
2007,03,27,09,08,7.60
2007,03,27,09,09,7.60
2007,03,27,09,10,7.70
2007,03,27,09,11,7.70
2007,03,27,09,12,7.70
2007,03,27,09,13,7.70
2007,03,27,09,14,7.70
2007,03,27,09,15,7.80
2007,03,27,09,16,7.80
2007,03,27,09,17,7.80
2007,03,27,09,18,7.90
2007,03,27,09,19,7.90
2007,03,27,09,20,7.90
2007,03,27,09,21,7.90
2007,03,27,09,22,7.90
2007,03,27,09,23,7.80
2007,03,27,09,24,7.80
2007,03,27,09,25,7.80
2007,03,27,09,26,7.80
2007,03,27,09,27,7.80
2007,03,27,09,28,7.70
2007,03,27,09,29,7.70
2007,03,27,09,30,7.70
2007,03,27,09,31,7.70
2007,03,27,09,32,7.70
2007,03,27,09,33,7.70
2007,03,27,09,34,7.70
2007,03,27,09,35,7.70
2007,03,27,09,36,7.80
2007,03,27,09,37,7.80
2007,03,27,09,38,7.80
2007,03,27,09,39,7.80
2007,03,27,09,40,7.80
2007,03,27,09,41,7.80
2007,03,27,09,42,7.80
2007,03,27,09,43,7.80
2007,03,27,09,44,7.80
2007,03,27,09,45,7.90
2007,03,27,09,46,7.90
2007,03,27,09,47,7.90
2007,03,27,09,48,7.90
2007,03,27,09,49,7.90
2007,03,27,09,50,7.90
2007,03,27,09,51,7.90
2007,03,27,09,52,8.00
2007,03,27,09,53,8.00
2007,03,27,09,54,8.00
2007,03,27,09,55,7.90
2007,03,27,09,56,7.90
2007,03,27,09,57,7.90
2007,03,27,09,58,7.90
2007,03,27,09,59,7.90
2007,03,27,10,00,7.90
2007,03,27,10,01,7.90
2007,03,27,10,02,7.90
2007,03,27,10,03,7.90
2007,03,27,10,04,7.90
2007,03,27,10,05,7.90
2007,03,27,10,06,7.90
2007,03,27,10,07,7.90
2007,03,27,10,08,8.00
2007,03,27,10,09,8.00
2007,03,27,10,10,8.00
2007,03,27,10,11,8.00
2007,03,27,10,12,8.00
2007,03,27,10,13,8.00
2007,03,27,10,14,8.00
2007,03,27,10,15,8.00
2007,03,27,10,16,8.10
2007,03,27,10,17,8.10
2007,03,27,10,18,8.10
2007,03,27,10,19,8.10
2007,03,27,10,20,8.10
2007,03,27,10,21,8.10
2007,03,27,10,22,8.10
2007,03,27,10,23,8.10
2007,03,27,10,24,8.10
2007,03,27,10,25,8.10
2007,03,27,10,26,8.10
2007,03,27,10,27,8.10
2007,03,27,10,28,8.10
2007,03,27,10,29,8.10
2007,03,27,10,30,8.10
2007,03,27,10,31,8.10
2007,03,27,10,32,8.10
2007,03,27,10,33,8.20
2007,03,27,10,34,8.20
2007,03,27,10,35,8.20
2007,03,27,10,36,8.20
2007,03,27,10,37,8.20
2007,03,27,10,38,8.30
2007,03,27,10,39,8.30
2007,03,27,10,40,8.30
2007,03,27,10,41,8.30
2007,03,27,10,42,8.30
2007,03,27,10,43,8.40
2007,03,27,10,44,8.40
2007,03,27,10,45,8.40
2007,03,27,10,46,8.40
2007,03,27,10,47,8.40
2007,03,27,10,48,8.50
2007,03,27,10,49,8.50
2007,03,27,10,50,8.60
2007,03,27,10,51,8.60
2007,03,27,10,52,8.70
2007,03,27,10,53,8.80
2007,03,27,10,54,8.80
2007,03,27,10,55,8.80
2007,03,27,10,56,8.90
2007,03,27,10,57,8.90
2007,03,27,10,58,8.90
2007,03,27,10,59,8.80
2007,03,27,11,00,8.80
2007,03,27,11,01,8.80
2007,03,27,11,02,8.70
2007,03,27,11,03,8.70
2007,03,27,11,04,8.70
2007,03,27,11,05,8.70
2007,03,27,11,06,8.70
2007,03,27,11,07,8.70
2007,03,27,11,08,8.70
2007,03,27,11,09,8.70
2007,03,27,11,10,8.60
2007,03,27,11,11,8.60
2007,03,27,11,12,8.50
2007,03,27,11,13,8.50
2007,03,27,11,14,8.40
2007,03,27,11,15,8.40
2007,03,27,11,16,8.40
2007,03,27,11,17,8.40
2007,03,27,11,18,8.40
2007,03,27,11,19,8.40
2007,03,27,11,20,8.50
2007,03,27,11,21,8.50
2007,03,27,11,22,8.50
2007,03,27,11,23,8.60
2007,03,27,11,24,8.60
2007,03,27,11,25,8.60
2007,03,27,11,26,8.70
2007,03,27,11,27,8.70
2007,03,27,11,28,8.70
2007,03,27,11,29,8.70
2007,03,27,11,30,8.70
2007,03,27,11,31,8.80
2007,03,27,11,32,8.80
2007,03,27,11,33,8.90
2007,03,27,11,34,8.90
2007,03,27,11,35,9.00
2007,03,27,11,36,9.00
2007,03,27,11,37,9.10
2007,03,27,11,38,9.20
2007,03,27,11,39,9.20
2007,03,27,11,40,9.20
2007,03,27,11,41,9.30
2007,03,27,11,42,9.30
2007,03,27,11,43,9.30
2007,03,27,11,44,9.30
2007,03,27,11,45,9.30
2007,03,27,11,46,9.30
2007,03,27,11,47,9.30
2007,03,27,11,48,9.30
2007,03,27,11,49,9.40
2007,03,27,11,50,9.40
2007,03,27,11,51,9.40
2007,03,27,11,52,9.50
2007,03,27,11,53,9.60
2007,03,27,11,54,9.60
2007,03,27,11,55,9.70
2007,03,27,11,56,9.80
2007,03,27,11,57,9.90
2007,03,27,11,58,10.00
2007,03,27,11,59,10.00
2007,03,27,12,00,10.00
2007,03,27,12,01,10.00
2007,03,27,12,02,10.00
2007,03,27,12,03,10.00
2007,03,27,12,04,10.10
2007,03,27,12,05,10.00
2007,03,27,12,06,10.00
2007,03,27,12,07,10.00
2007,03,27,12,08,10.10
2007,03,27,12,09,10.10
2007,03,27,12,10,10.10
2007,03,27,12,11,10.10
2007,03,27,12,12,10.10
2007,03,27,12,13,10.10
2007,03,27,12,14,10.10
2007,03,27,12,15,10.10
2007,03,27,12,16,10.10
2007,03,27,12,17,10.10
2007,03,27,12,18,10.10
2007,03,27,12,19,10.10
2007,03,27,12,20,10.10
2007,03,27,12,21,10.20
2007,03,27,12,22,10.20
2007,03,27,12,23,10.20
2007,03,27,12,24,10.20
2007,03,27,12,25,10.30
2007,03,27,12,26,10.20
2007,03,27,12,27,10.20
2007,03,27,12,28,10.20
2007,03,27,12,29,10.20
2007,03,27,12,30,10.20
2007,03,27,12,31,10.20
2007,03,27,12,32,10.20
2007,03,27,12,33,10.20
2007,03,27,12,34,10.30
2007,03,27,12,35,10.40
2007,03,27,12,36,10.60
2007,03,27,12,37,10.70
2007,03,27,12,38,10.80
2007,03,27,12,39,10.80
2007,03,27,12,40,10.80
2007,03,27,12,41,10.80
2007,03,27,12,42,10.80
2007,03,27,12,43,10.80
2007,03,27,12,44,10.80
2007,03,27,12,45,10.80
2007,03,27,12,46,10.90
2007,03,27,12,47,10.90
2007,03,27,12,48,10.90
2007,03,27,12,49,10.80
2007,03,27,12,50,10.70
2007,03,27,12,51,10.70
2007,03,27,12,52,10.60
2007,03,27,12,53,10.60
2007,03,27,12,54,10.50
2007,03,27,12,55,10.40
2007,03,27,12,56,10.40
2007,03,27,12,57,10.40
2007,03,27,12,58,10.40
2007,03,27,12,59,10.40
2007,03,27,13,00,10.30
2007,03,27,13,01,10.30
2007,03,27,13,02,10.40
2007,03,27,13,03,10.40
2007,03,27,13,04,10.50
2007,03,27,13,05,10.60
2007,03,27,13,06,10.60
2007,03,27,13,07,10.70
2007,03,27,13,08,10.80
2007,03,27,13,09,10.80
2007,03,27,13,10,10.80
2007,03,27,13,11,10.80
2007,03,27,13,12,10.80
2007,03,27,13,13,10.80
2007,03,27,13,14,10.80
2007,03,27,13,15,10.70
2007,03,27,13,16,10.70
2007,03,27,13,17,10.60
2007,03,27,13,18,10.60
2007,03,27,13,19,10.70
2007,03,27,13,20,10.70
2007,03,27,13,21,10.70
2007,03,27,13,22,10.80
2007,03,27,13,23,10.80
2007,03,27,13,24,10.80
2007,03,27,13,25,10.80
2007,03,27,13,26,10.80
2007,03,27,13,27,10.90
2007,03,27,13,28,10.80
2007,03,27,13,29,10.70
2007,03,27,13,30,10.70
2007,03,27,13,31,10.60
2007,03,27,13,32,10.50
2007,03,27,13,33,10.50
2007,03,27,13,34,10.40
2007,03,27,13,35,10.40
2007,03,27,13,36,10.40
2007,03,27,13,37,10.40
2007,03,27,13,38,10.40
2007,03,27,13,39,10.40
2007,03,27,13,40,10.40
2007,03,27,13,41,10.30
2007,03,27,13,42,10.30
2007,03,27,13,43,10.30
2007,03,27,13,44,10.30
2007,03,27,13,45,10.30
2007,03,27,13,46,10.30
2007,03,27,13,47,10.40
2007,03,27,13,48,10.40
2007,03,27,13,49,10.40
2007,03,27,13,50,10.40
2007,03,27,13,51,10.40
2007,03,27,13,52,10.40
2007,03,27,13,53,10.40
2007,03,27,13,54,10.40
2007,03,27,13,55,10.30
2007,03,27,13,56,10.20
2007,03,27,13,57,10.20
2007,03,27,13,58,10.20
2007,03,27,13,59,10.20
2007,03,27,14,00,10.20
2007,03,27,14,01,10.20
2007,03,27,14,02,10.20
2007,03,27,14,03,10.20
2007,03,27,14,04,10.30
2007,03,27,14,05,10.30
2007,03,27,14,06,10.30
2007,03,27,14,07,10.40
2007,03,27,14,08,10.40
2007,03,27,14,09,10.40
2007,03,27,14,10,10.40
2007,03,27,14,11,10.40
2007,03,27,14,12,10.40
2007,03,27,14,13,10.40
2007,03,27,14,14,10.30
2007,03,27,14,15,10.30
2007,03,27,14,16,10.30
2007,03,27,14,17,10.30
2007,03,27,14,18,10.30
2007,03,27,14,19,10.30
2007,03,27,14,20,10.30
2007,03,27,14,21,10.40
2007,03,27,14,22,10.40
2007,03,27,14,23,10.30
2007,03,27,14,24,10.30
2007,03,27,14,25,10.30
2007,03,27,14,26,10.30
2007,03,27,14,27,10.30
2007,03,27,14,28,10.40
2007,03,27,14,29,10.40
2007,03,27,14,30,10.60
2007,03,27,14,31,10.70
2007,03,27,14,32,10.70
2007,03,27,14,33,10.80
2007,03,27,14,34,10.90
2007,03,27,14,35,11.00
2007,03,27,14,36,11.10
2007,03,27,14,37,11.20
2007,03,27,14,38,11.20
2007,03,27,14,39,11.20
2007,03,27,14,40,11.20
2007,03,27,14,41,11.20
2007,03,27,14,42,11.20
2007,03,27,14,43,11.30
2007,03,27,14,44,11.30
2007,03,27,14,45,11.40
2007,03,27,14,46,11.60
2007,03,27,14,47,11.70
2007,03,27,14,48,11.70
2007,03,27,14,49,11.60
2007,03,27,14,50,11.60
2007,03,27,14,51,11.50
2007,03,27,14,52,11.50
2007,03,27,14,53,11.40
2007,03,27,14,54,11.40
2007,03,27,14,55,11.50
2007,03,27,14,56,11.50
2007,03,27,14,57,11.40
2007,03,27,14,58,11.30
2007,03,27,14,59,11.30
2007,03,27,15,00,11.30
2007,03,27,15,01,11.40
2007,03,27,15,02,11.40
2007,03,27,15,03,11.40
2007,03,27,15,04,11.40
2007,03,27,15,05,11.30
2007,03,27,15,06,11.30
2007,03,27,15,07,11.20
2007,03,27,15,08,11.10
2007,03,27,15,09,11.10
2007,03,27,15,10,11.00
2007,03,27,15,11,11.00
2007,03,27,15,12,10.90
2007,03,27,15,13,10.90
2007,03,27,15,14,10.90
2007,03,27,15,15,10.90
2007,03,27,15,16,11.00
2007,03,27,15,17,11.10
2007,03,27,15,18,11.10
2007,03,27,15,19,11.10
2007,03,27,15,20,11.20
2007,03,27,15,21,11.20
2007,03,27,15,22,11.20
2007,03,27,15,23,11.20
2007,03,27,15,24,11.20
2007,03,27,15,25,11.10
2007,03,27,15,26,11.10
2007,03,27,15,27,11.20
2007,03,27,15,28,11.10
2007,03,27,15,29,11.00
2007,03,27,15,30,11.00
2007,03,27,15,31,10.90
2007,03,27,15,32,10.80
2007,03,27,15,33,10.80
2007,03,27,15,34,10.80
2007,03,27,15,35,10.70
2007,03,27,15,36,10.70
2007,03,27,15,37,10.70
2007,03,27,15,38,10.70
2007,03,27,15,39,10.70
2007,03,27,15,40,10.60
2007,03,27,15,41,10.40
2007,03,27,15,42,10.30
2007,03,27,15,43,10.20
2007,03,27,15,44,10.10
2007,03,27,15,45,10.10
2007,03,27,15,46,10.10
2007,03,27,15,47,10.20
2007,03,27,15,48,10.10
2007,03,27,15,49,10.20
2007,03,27,15,50,10.20
2007,03,27,15,51,10.30
2007,03,27,15,52,10.40
2007,03,27,15,53,10.40
2007,03,27,15,54,10.50
2007,03,27,15,55,10.50
2007,03,27,15,56,10.60
2007,03,27,15,57,10.60
2007,03,27,15,58,10.60
2007,03,27,15,59,10.60
2007,03,27,16,00,10.60
2007,03,27,16,01,10.60
2007,03,27,16,02,10.60
2007,03,27,16,03,10.70
2007,03,27,16,04,10.70
2007,03,27,16,05,10.70
2007,03,27,16,06,10.60
2007,03,27,16,07,10.60
2007,03,27,16,08,10.60
2007,03,27,16,09,10.70
2007,03,27,16,10,10.70
2007,03,27,16,11,10.70
2007,03,27,16,12,10.60
2007,03,27,16,13,10.60
2007,03,27,16,14,10.50
2007,03,27,16,15,10.40
2007,03,27,16,16,10.40
2007,03,27,16,17,10.40
2007,03,27,16,18,10.40
2007,03,27,16,19,10.40
2007,03,27,16,20,10.40
2007,03,27,16,21,10.40
2007,03,27,16,22,10.50
2007,03,27,16,23,10.50
2007,03,27,16,24,10.50
2007,03,27,16,25,10.50
2007,03,27,16,26,10.60
2007,03,27,16,27,10.60
2007,03,27,16,28,10.60
2007,03,27,16,29,10.70
2007,03,27,16,30,10.70
2007,03,27,16,31,10.70
2007,03,27,16,32,10.50
2007,03,27,16,33,10.40
2007,03,27,16,34,10.20
2007,03,27,16,35,10.10
2007,03,27,16,36,10.10
2007,03,27,16,37,10.00
2007,03,27,16,38,9.90
2007,03,27,16,39,9.80
2007,03,27,16,40,9.90
2007,03,27,16,41,9.90
2007,03,27,16,42,9.90
2007,03,27,16,43,9.90
2007,03,27,16,44,9.80
2007,03,27,16,45,9.80
2007,03,27,16,46,9.80
2007,03,27,16,47,9.80
2007,03,27,16,48,9.70
2007,03,27,16,49,9.70
2007,03,27,16,50,9.70
2007,03,27,16,51,9.70
2007,03,27,16,52,9.70
2007,03,27,16,53,9.70
2007,03,27,16,54,9.60
2007,03,27,16,55,9.60
2007,03,27,16,56,9.60
2007,03,27,16,57,9.60
2007,03,27,16,58,9.60
2007,03,27,16,59,9.60
2007,03,27,17,00,9.60
2007,03,27,17,01,9.50
2007,03,27,17,02,9.50
2007,03,27,17,03,9.50
2007,03,27,17,04,9.40
2007,03,27,17,05,9.40
2007,03,27,17,06,9.30
2007,03,27,17,07,9.30
2007,03,27,17,08,9.40
2007,03,27,17,09,9.40
2007,03,27,17,10,9.40
2007,03,27,17,11,9.40
2007,03,27,17,12,9.30
2007,03,27,17,13,9.30
2007,03,27,17,14,9.20
2007,03,27,17,15,9.20
2007,03,27,17,16,9.20
2007,03,27,17,17,9.20
2007,03,27,17,18,9.20
2007,03,27,17,19,9.10
2007,03,27,17,20,9.10
2007,03,27,17,21,9.00
2007,03,27,17,22,9.00
2007,03,27,17,23,8.90
2007,03,27,17,24,8.90
2007,03,27,17,25,8.90
2007,03,27,17,26,9.00
2007,03,27,17,27,9.10
2007,03,27,17,28,9.10
2007,03,27,17,29,9.20
2007,03,27,17,30,9.20
2007,03,27,17,31,9.10
2007,03,27,17,32,8.90
2007,03,27,17,33,8.80
2007,03,27,17,34,8.80
2007,03,27,17,35,8.80
2007,03,27,17,36,8.80
2007,03,27,17,37,8.80
2007,03,27,17,38,8.80
2007,03,27,17,39,8.80
2007,03,27,17,40,8.70
2007,03,27,17,41,8.70
2007,03,27,17,42,8.70
2007,03,27,17,43,8.70
2007,03,27,17,44,8.70
2007,03,27,17,45,8.70
2007,03,27,17,46,8.60
2007,03,27,17,47,8.60
2007,03,27,17,48,8.70
2007,03,27,17,49,8.70
2007,03,27,17,50,8.70
2007,03,27,17,51,8.70
2007,03,27,17,52,8.60
2007,03,27,17,53,8.50
2007,03,27,17,54,8.40
2007,03,27,17,55,8.40
2007,03,27,17,56,8.30
2007,03,27,17,57,8.30
2007,03,27,17,58,8.30
2007,03,27,17,59,8.20
2007,03,27,18,00,8.20
2007,03,27,18,01,8.20
2007,03,27,18,02,8.10
2007,03,27,18,03,8.10
2007,03,27,18,04,8.10
2007,03,27,18,05,8.00
2007,03,27,18,06,8.00
2007,03,27,18,07,8.00
2007,03,27,18,08,7.90
2007,03,27,18,09,8.00
2007,03,27,18,10,8.00
2007,03,27,18,11,8.00
2007,03,27,18,12,8.10
2007,03,27,18,13,8.10
2007,03,27,18,14,8.10
2007,03,27,18,15,8.10
2007,03,27,18,16,8.00
2007,03,27,18,17,7.90
2007,03,27,18,18,7.90
2007,03,27,18,19,7.80
2007,03,27,18,20,7.80
2007,03,27,18,21,7.70
2007,03,27,18,22,7.70
2007,03,27,18,23,7.70
2007,03,27,18,24,7.70
2007,03,27,18,25,7.60
2007,03,27,18,26,7.60
2007,03,27,18,27,7.60
2007,03,27,18,28,7.60
2007,03,27,18,29,7.50
2007,03,27,18,30,7.40
2007,03,27,18,31,7.40
2007,03,27,18,32,7.40
2007,03,27,18,33,7.40
2007,03,27,18,34,7.30
2007,03,27,18,35,7.30
2007,03,27,18,36,7.30
2007,03,27,18,37,7.30
2007,03,27,18,38,7.30
2007,03,27,18,39,7.20
2007,03,27,18,40,7.20
2007,03,27,18,41,7.20
2007,03,27,18,42,7.10
2007,03,27,18,43,7.10